Orbital Elements at Epoch 2459200.5 (2020-Dec-17.0) TDB
Reference: JPL 24 (heliocentric ecliptic J2000)
Element | Value | Uncertainty (1-sigma) | Units |
e | .1107045016656375 | 4.3431e-08 | |
a | 2.552179804311708 | 1.4243e-08 | au |
q | 2.269642010914276 | 1.1245e-07 | au |
i | 4.937518622642085 | 5.957e-06 | deg |
node | 319.1940070526463 | 6.4171e-05 | deg |
peri | 288.0910481881442 | 7.1876e-05 | deg |
M | 286.4058502639409 | 3.2227e-05 | deg |
tp | 2459504.943088966948 (2021-Oct-17.44308897) | 0.00013347 | TDB |
period | 1489.242180542515 4.08 | 1.2466e-05 3.413e-08 | d yr |
n | .2417336848925779 | 2.0235e-09 | deg/d |
Q | 2.83471759770914 | 1.5819e-08 | au |
|
| | Orbit Determination Parameters
Additional Information
|